Fort Worth Alliance, TX

12:02 PM CDT on August 19, 2017 (GMT -0500)
Fort Worth Alliance

Weather History for KAFW - February, 2013

Change the Weather History Date:

Wednesday, February 13, 2013

  Actual Average Record
Temperature  
Mean Temperature 47 °F -  
Max Temperature 57 °F 58 °F 75 °F (2005)
Min Temperature 37 °F 36 °F 21 °F (2006)
Degree Days  
Heating Degree Days 18    
Moisture  
Dew Point 34 °F    
Average Humidity 70    
Maximum Humidity 89    
Minimum Humidity 36    
Precipitation  
Precipitation 0.00 in - - ()
Sea Level Pressure  
Sea Level Pressure 30.09 in    
Wind  
Wind Speed 9 mph (WNW)    
Max Wind Speed 16 mph    
Max Gust Speed 23 mph    
Visibility 10 miles    
Events      
Averages and records for this station are not official NWS values.
T = Trace of Precipitation, MM = Missing Value Source: NWS Daily Summary

Daily Weather History Graph

Daily Weather History Graph

Search for Another Location

Airport or City:

Trip Planner

Search our weather history database for the weather conditions in past years. The results will help you decide how hot, cold, wet, or windy it might be!

Date:

Astronomy

Feb. 13, 2013 Rise Set
Actual Time 7:14 AM CST 6:13 PM CST
Civil Twilight 6:49 AM CST 6:38 PM CST
Nautical Twilight 6:19 AM CST 7:07 PM CST
Astronomical Twilight 5:51 AM CST 7:36 PM CST
Moon 8:59 AM CST (2/13) 10:00 PM CST (2/13)
Length of Visible Light 11h 49m
Length of Day
10h 58m
Waxing Crescent, 14% of the Moon is Illuminated
Feb 13
Waxing Crescent
Feb 17
First Quarter
Feb 25
Full
Mar 4
Last Quarter
Mar 11
New

Hourly Weather History & Observations

Time (CST) Temp. Windchill Dew Point Humidity Pressure Visibility Wind Dir Wind Speed Gust Speed Precip Events Conditions
12:49 AM 39.2 °F 31.6 °F 35.6 °F 87% 30.07 in 10.0 mi NW 12.7 mph 19.6 mph N/A   Overcast
12:53 AM 39.0 °F 30.3 °F 36.0 °F 89% 30.08 in 10.0 mi NW 16.1 mph 20.7 mph N/A   Overcast
1:53 AM 39.0 °F 32.3 °F 35.1 °F 86% 30.09 in 10.0 mi NW 10.4 mph - N/A   Mostly Cloudy
2:36 AM 39.2 °F 33.0 °F 35.6 °F 87% 30.07 in 10.0 mi NW 9.2 mph - N/A   Mostly Cloudy
2:53 AM 39.0 °F 32.8 °F 35.1 °F 86% 30.09 in 10.0 mi NW 9.2 mph - N/A   Mostly Cloudy
3:30 AM 39.2 °F 32.0 °F 33.8 °F 81% 30.07 in 9.0 mi NW 11.5 mph - N/A   Overcast
3:53 AM 37.9 °F 29.6 °F 33.1 °F 83% 30.10 in 10.0 mi NNW 13.8 mph 23.0 mph N/A   Overcast
4:53 AM 37.0 °F 28.5 °F 33.1 °F 86% 30.11 in 10.0 mi NW 13.8 mph - N/A   Overcast
5:53 AM 37.9 °F 31.5 °F 34.0 °F 86% 30.12 in 10.0 mi NW 9.2 mph - N/A   Overcast
6:53 AM 37.9 °F 32.1 °F 33.1 °F 83% 30.13 in 10.0 mi NW 8.1 mph - N/A   Overcast
7:53 AM 37.0 °F 31.0 °F 33.1 °F 86% 30.14 in 10.0 mi NNW 8.1 mph - N/A   Overcast
8:53 AM 37.9 °F 34.4 °F 33.1 °F 83% 30.16 in 10.0 mi NW 4.6 mph - N/A   Scattered Clouds
9:53 AM 39.9 °F 36.7 °F 33.1 °F 77% 30.17 in 10.0 mi WNW 4.6 mph - N/A   Scattered Clouds
10:53 AM 44.1 °F - 34.0 °F 68% 30.17 in 10.0 mi Calm Calm - N/A   Partly Cloudy
11:53 AM 48.0 °F - 34.0 °F 58% 30.15 in 10.0 mi WNW 4.6 mph - N/A   Clear
12:53 PM 51.1 °F - 34.0 °F 52% 30.12 in 10.0 mi Calm Calm - N/A   Clear
1:53 PM 53.1 °F - 34.0 °F 48% 30.08 in 10.0 mi Variable 3.5 mph - N/A   Clear
2:53 PM 55.0 °F - 32.0 °F 42% 30.05 in 10.0 mi Calm Calm - N/A   Clear
3:53 PM 57.0 °F - 30.9 °F 37% 30.04 in 10.0 mi SW 4.6 mph - N/A   Clear
4:53 PM 57.0 °F - 30.0 °F 36% 30.03 in 10.0 mi West 4.6 mph - N/A   Clear
5:53 PM 53.1 °F - 32.0 °F 45% 30.03 in 10.0 mi South 3.5 mph - N/A   Clear
6:53 PM 46.9 °F - 34.0 °F 61% 30.03 in 10.0 mi South 4.6 mph - N/A   Clear
7:53 PM 45.0 °F 41.8 °F 33.1 °F 63% 30.04 in 10.0 mi South 5.8 mph - N/A   Clear
8:53 PM 45.0 °F 41.2 °F 33.1 °F 63% 30.05 in 10.0 mi South 6.9 mph - N/A   Clear
9:53 PM 44.1 °F - 34.0 °F 68% 30.06 in 10.0 mi Calm Calm - N/A   Clear
10:53 PM 42.1 °F 40.2 °F 33.1 °F 70% 30.06 in 10.0 mi South 3.5 mph - N/A   Clear
11:53 PM 42.1 °F - 34.0 °F 73% 30.06 in 10.0 mi Calm Calm - N/A   Clear